Theta_e
322 323 323 322 322 319 317 318 320 319 318 321 320 322 321 321 320 320 322 326 325 325 325 326 327 327 327 330 330 331 331 330 329 327 325 323 320 318 315 314 314 314 314 314
322 323 321 320 321 321 320 320 320 319 319 321 321 322 321 320 319 320 321 321 321 322 323 323 324 325 326 326 328 330 331 331 330 328 327 326 324 322 320 318 316 315 315 315
320 318 320 320 321 321 320 321 321 320 320 321 322 321 320 320 320 320 320 320 321 321 320 320 320 321 323 325 325 325 328 330 331 330 329 328 327 326 325 323 322 320 317 316
320 318 319 320 320 320 322 319 320 321 321 321 319 322 319 318 318 319 320 321 321 321 321 321 321 321 321 322 325 325 325 327 329 330 331 329 328 327 325 325 325 323 322 320
320 319 319 319 320 319 321 318 319 319 321 320 319 319 318 317 317 317 319 320 320 320 321 321 321 321 321 322 322 323 325 327 328 329 329 330 330 329 328 328 327 326 325 324
318 317 317 318 318 319 317 318 318 318 319 320 317 318 316 316 316 315 318 319 318 318 318 319 319 319 319 320 321 321 320 322 324 327 329 330 331 330 330 329 329 328 327 327
317 317 317 318 319 319 319 319 320 319 320 318 315 318 316 315 314 313 314 315 317 317 318 318 318 317 315 316 317 315 314 314 314 314 320 326 329 330 331 330 330 329 329 328
319 319 316 317 318 319 320 318 316 315 317 314 313 314 313 315 316 316 316 317 317 317 316 316 314 312 311 314 311 311 311 310 309 309 311 313 319 326 328 329 329 330 330 329
318 317 315 316 316 317 319 319 315 316 308 312 313 313 313 313 313 314 316 315 315 315 314 313 312 312 311 310 309 308 309 308 309 309 310 311 312 314 319 326 328 328 329 329
315 317 316 315 315 315 316 316 317 317 315 313 312 313 312 313 313 313 313 314 314 313 313 313 311 309 309 310 309 309 309 310 310 310 310 310 310 311 312 314 320 326 326 327
315 315 315 314 315 318 317 317 316 316 315 314 313 310 310 311 310 311 311 313 313 313 313 311 308 308 308 309 308 307 309 310 310 310 310 310 310 310 311 312 313 313 320 324
315 315 314 316 312 312 316 316 316 318 315 314 314 313 311 311 311 311 313 313 312 312 311 308 307 306 306 306 308 308 309 309 309 309 308 308 309 310 311 311 312 313 313 315
313 313 314 312 311 310 314 316 316 315 313 314 312 314 312 310 309 310 312 312 311 311 309 307 306 306 305 303 304 306 307 306 308 309 309 309 309 309 310 311 312 312 313 314
312 311 312 313 313 311 314 314 315 316 317 315 313 311 311 309 308 309 311 311 310 309 308 307 305 305 303 302 303 303 303 304 304 305 305 308 310 310 309 309 311 312 312 312
309 313 309 311 308 312 312 313 315 315 315 315 314 313 311 310 309 309 310 310 309 309 309 307 305 305 303 301 302 303 301 302 301 301 303 304 307 309 310 309 310 311 312 311
309 313 309 308 309 307 309 310 312 314 314 313 312 312 311 311 311 310 310 309 309 309 308 306 305 305 303 300 300 302 301 300 300 298 297 299 302 306 308 309 309 309 311 311
308 311 311 313 310 308 308 306 308 310 312 312 313 312 311 310 310 309 309 309 309 308 307 307 305 305 301 298 298 299 301 300 297 296 296 297 297 300 303 307 309 309 309 311
309 310 309 307 309 310 307 307 307 307 308 309 310 310 310 310 310 309 309 309 309 309 308 306 305 305 302 298 298 297 297 297 297 296 296 296 296 297 298 301 305 308 309 309
308 307 307 306 303 304 306 303 305 306 306 306 307 308 308 309 308 308 308 308 308 308 308 307 305 304 300 298 297 296 297 296 296 296 296 296 296 297 297 297 300 303 308 309
307 308 308 304 307 302 302 304 305 303 304 303 306 306 306 306 306 306 307 307 307 306 306 306 305 303 300 299 297 296 296 296 296 296 296 296 296 297 298 297 297 299 302 308
308 308 309 305 303 302 302 302 303 301 303 303 304 305 305 305 306 306 306 305 304 303 303 303 304 303 301 299 297 296 296 296 296 296 296 297 297 297 297 297 297 297 299 302
307 307 308 307 308 307 301 301 303 302 303 302 302 303 303 305 306 305 305 305 304 304 304 304 303 301 300 298 297 296 296 296 295 295 296 296 296 297 296 297 297 297 297 299
304 305 304 305 304 301 300 301 303 302 302 302 303 304 303 303 304 305 305 304 304 304 303 301 300 299 297 296 296 295 295 295 295 295 296 296 296 296 296 296 296 297 297 298
301 303 301 302 302 301 301 302 301 302 301 301 301 301 300 300 300 300 299 299 299 298 298 297 296 296 296 295 295 294 294 295 295 295 295 295 295 296 296 296 296 296 296 297
302 301 300 299 301 302 302 302 301 301 301 301 300 299 299 298 296 295 295 295 295 295 295 295 294 294 294 294 294 294 294 294 294 294 294 294 295 295 296 296 296 296 296 297
300 300 302 301 296 301 296 295 298 299 297 295 295 295 294 293 293 293 293 293 293 293 293 292 292 292 293 292 292 292 292 292 292 292 292 292 293 294 295 295 296 296 296 297
Wind_Speed
15 6 14 13 13 11 9 8 3 8 8 8 9 10 14 24 22 21 21 21 21 21 21 19 20 21 23 26 28 30 31 30 31 32 33 36 38 37 37 38 36 36 36 33
6 16 12 12 13 13 11 10 7 9 4 2 7 13 13 20 21 22 24 24 24 24 23 24 25 25 27 28 30 32 33 33 34 34 34 36 37 39 39 40 41 40 40 38
17 4 18 12 11 14 13 11 8 6 5 5 5 19 19 15 32 33 28 29 26 25 27 27 26 24 26 30 30 31 32 33 34 36 35 34 36 37 41 44 45 45 44 43
13 18 17 15 18 12 14 6 5 2 3 4 4 7 9 8 9 19 29 25 25 25 27 31 30 28 28 19 24 27 27 27 30 34 37 38 39 42 44 46 46 46 47 47
8 14 17 17 17 14 7 8 9 6 5 5 7 8 4 7 10 11 9 23 19 20 19 17 15 12 11 12 11 13 22 26 27 30 35 38 41 42 42 42 44 46 46 47
12 5 12 14 11 10 8 7 7 4 2 8 7 9 5 9 11 6 6 12 13 10 11 7 6 4 6 10 14 17 17 22 25 25 29 36 41 42 43 43 42 44 47 49
5 1 2 7 9 7 11 10 2 2 4 7 11 11 15 11 10 6 8 9 1 2 3 2 3 7 9 13 12 8 6 6 7 11 25 30 35 40 44 45 44 44 47 50
12 9 9 6 7 8 17 13 5 8 5 3 8 8 6 5 9 7 2 6 2 3 2 4 3 3 4 4 8 7 8 11 14 14 13 14 29 33 40 45 47 46 46 49
13 11 5 5 6 13 11 17 9 2 1 1 5 6 9 6 6 13 8 7 9 8 7 6 3 2 10 13 13 14 13 14 15 16 16 15 15 20 33 40 44 46 48 49
7 6 5 7 4 12 10 7 6 4 5 5 5 6 6 2 5 4 8 15 19 12 6 2 6 9 9 10 14 15 17 20 20 21 20 20 20 21 22 28 39 44 47 47
11 7 3 6 10 12 7 13 8 5 7 5 2 5 10 13 3 5 3 20 16 11 6 0 7 9 9 10 13 16 15 16 19 21 24 25 25 25 26 26 29 35 41 46
13 3 4 12 2 4 18 9 19 8 8 5 3 6 7 4 4 4 16 15 12 9 3 7 7 7 11 14 14 15 16 17 19 21 23 24 27 28 28 28 28 28 33 38
11 6 5 4 2 4 7 14 16 18 3 8 5 9 13 14 4 9 22 14 12 9 4 7 8 10 13 13 13 14 15 19 20 21 24 25 26 29 29 30 31 31 32 35
19 5 10 13 13 9 12 19 18 19 14 17 10 9 14 11 8 12 15 18 13 8 7 11 11 14 13 13 15 15 18 19 22 25 27 27 27 28 30 31 31 32 33 36
9 14 6 4 4 11 14 18 26 23 24 16 24 20 21 21 13 11 18 14 6 9 13 11 13 15 13 15 16 18 20 21 24 27 29 30 29 30 31 32 32 33 33 34
10 6 6 3 4 7 3 11 19 26 27 22 18 16 20 35 22 16 21 12 12 16 16 15 15 17 15 17 19 21 23 24 29 32 31 31 32 32 34 33 33 33 34 33
11 8 7 9 10 4 2 22 17 13 19 23 20 26 23 22 21 20 13 17 27 21 17 19 17 20 15 18 21 23 25 29 34 37 38 36 35 36 36 38 38 36 34 33
9 9 3 3 9 6 8 9 21 19 17 21 22 21 22 27 38 20 25 32 23 23 27 21 21 23 16 20 21 23 27 32 38 42 43 42 41 40 40 41 41 40 38 36
8 5 3 5 3 8 12 4 10 14 22 22 22 23 30 37 24 29 41 26 37 34 28 28 25 24 17 21 22 28 33 38 43 45 45 44 45 45 44 44 44 44 42 41
3 8 5 2 4 10 4 12 25 5 19 10 21 25 28 28 8 18 15 20 20 22 23 25 24 21 21 25 26 31 37 42 46 47 45 45 46 46 47 48 48 47 46 44
6 5 13 8 6 7 6 4 21 9 5 9 22 31 24 10 17 17 11 9 11 14 17 17 21 24 28 31 31 38 42 45 47 44 44 44 48 51 50 50 51 52 50 49
10 10 6 6 9 19 13 17 19 9 8 4 0 5 5 9 8 9 10 14 13 15 15 17 25 28 34 35 37 45 50 52 48 48 49 49 49 53 56 54 53 52 53 52
6 8 6 11 7 2 25 10 30 11 9 5 2 1 1 3 2 5 5 7 12 17 21 22 27 40 39 39 42 48 54 51 48 48 51 52 53 54 55 57 57 54 54 52
5 8 4 4 5 6 16 22 14 31 21 15 13 9 8 8 9 12 17 19 22 24 27 30 35 39 44 46 50 53 53 49 49 51 53 53 52 53 54 55 56 55 55 53
5 9 6 3 4 3 11 20 19 17 13 7 8 10 12 14 11 11 15 19 23 27 30 34 40 48 54 54 54 52 51 49 51 52 54 54 53 54 55 56 56 57 55 50
3 5 7 3 5 7 8 8 1 6 7 8 10 12 13 18 23 27 32 35 37 40 42 44 46 50 55 54 57 54 49 47 49 55 57 56 56 56 55 58 61 56 55 52
Wind_Direction
197 194 205 192 215 220 258 232 277 234 260 188 232 254 262 273 268 255 252 239 239 252 256 258 253 247 242 248 240 240 245 245 242 240 239 237 240 242 243 245 246 245 244 243
175 224 205 216 203 232 234 251 252 288 271 69 305 281 282 281 270 252 252 251 250 252 249 251 252 253 250 245 248 245 244 245 248 249 247 245 245 248 250 251 249 247 247 247
205 189 213 211 217 202 223 233 238 253 342 299 293 279 254 238 250 259 250 247 252 254 259 258 255 256 258 254 254 256 252 247 248 255 254 251 248 247 248 249 250 250 249 249
226 224 199 210 214 204 223 202 264 295 328 247 90 287 294 317 262 240 249 241 245 251 258 260 262 266 259 274 262 254 258 257 251 250 252 254 253 251 257 256 257 255 253 252
201 186 205 207 215 200 215 188 217 232 246 310 252 283 255 205 263 273 234 209 215 244 248 258 264 265 254 251 252 247 249 255 256 257 253 256 253 259 263 258 257 260 259 256
212 170 203 213 194 202 124 94 55 61 42 256 187 218 220 223 231 231 211 206 218 245 238 240 223 272 287 270 259 249 257 245 247 252 256 252 254 259 261 258 253 254 259 260
225 245 297 179 172 154 144 141 141 203 201 239 170 202 241 282 314 293 294 303 251 105 121 150 285 283 284 258 271 262 271 276 279 278 255 251 259 260 262 264 259 253 255 257
184 206 211 193 202 178 180 175 169 183 201 242 189 236 229 136 45 52 152 108 113 52 131 167 90 75 46 190 324 314 302 297 298 301 293 280 257 257 260 261 261 258 254 258
188 221 178 189 194 152 186 216 198 70 12 32 209 263 313 266 293 280 219 264 219 141 144 134 117 347 341 336 329 326 318 314 310 305 291 280 276 271 261 263 264 263 260 256
180 202 183 189 205 220 186 147 180 190 201 233 242 239 238 146 200 190 170 121 126 135 158 128 15 354 329 326 328 332 329 322 316 311 309 294 285 278 276 269 264 264 265 261
215 194 196 132 206 180 192 198 206 162 226 201 219 235 191 222 139 162 157 138 140 151 168 313 327 313 307 301 312 318 320 325 325 322 316 309 304 292 285 276 270 267 266 264
202 134 164 200 45 265 213 210 201 201 203 239 279 251 297 297 326 263 134 135 152 173 194 330 327 327 319 324 326 329 329 329 330 328 329 324 320 310 298 291 283 278 275 270
157 201 133 115 30 304 213 221 214 224 236 197 185 248 244 289 324 283 150 166 202 203 235 326 323 321 335 340 335 330 329 329 328 328 328 331 334 328 315 302 298 289 282 277
160 169 214 198 212 130 203 221 224 213 219 225 222 251 260 249 231 147 173 205 202 232 298 320 316 306 320 322 321 324 326 332 335 336 336 330 327 328 325 311 300 297 291 284
154 203 208 264 27 191 196 201 208 210 219 211 225 223 245 255 238 214 212 195 191 257 268 267 277 283 295 315 319 325 331 335 336 337 337 337 330 324 326 325 309 301 294 289
174 231 176 204 28 345 230 200 212 216 223 227 237 237 238 255 252 239 246 193 229 241 237 242 257 265 284 313 316 317 322 327 330 332 331 332 332 327 322 324 325 313 305 297
159 176 171 223 157 146 272 232 218 227 228 223 225 235 240 249 258 247 264 277 265 250 242 241 247 258 286 313 314 312 316 322 325 326 327 328 327 328 328 323 322 324 314 304
147 182 161 143 138 211 236 188 208 217 230 228 241 246 241 245 256 268 260 251 249 255 263 245 244 253 285 310 312 313 314 318 320 321 322 322 324 322 324 324 324 321 319 310
168 135 139 162 204 312 280 190 177 197 241 232 233 240 247 252 261 264 257 265 260 259 260 255 248 251 286 307 319 320 318 317 318 319 320 320 319 318 319 319 321 323 318 313
90 183 179 130 202 218 345 206 183 133 260 182 220 235 239 243 214 252 268 266 263 259 255 246 247 242 286 313 318 317 318 317 316 316 314 315 315 316 317 318 318 319 320 312
162 173 205 197 230 271 203 136 142 157 249 206 218 231 243 226 234 249 253 271 255 252 239 234 236 263 287 309 307 307 313 315 315 310 307 307 308 310 311 313 315 315 315 315
166 169 191 197 221 251 173 148 176 205 196 191 219 251 258 248 251 254 257 256 244 231 235 256 277 285 296 297 300 305 307 312 310 305 302 300 298 299 303 307 309 311 312 311
198 185 180 189 215 247 173 191 201 161 176 223 245 157 51 35 351 318 295 259 257 272 279 273 271 287 293 297 302 302 305 308 306 302 299 298 298 298 299 301 304 306 308 308
227 212 184 97 228 197 211 219 223 231 263 287 291 288 291 291 286 278 276 275 275 279 287 292 295 296 294 296 298 299 301 302 300 296 296 299 300 300 301 300 300 301 302 305
185 143 174 271 310 342 230 231 247 268 286 281 276 293 295 298 303 300 294 295 297 298 296 294 293 293 294 298 298 298 298 297 294 294 297 298 298 299 299 297 297 297 295 297
196 168 188 178 7 230 76 69 269 260 298 328 323 307 305 309 308 306 305 304 303 302 301 299 298 297 297 298 297 297 296 293 292 293 294 296 298 297 296 295 296 295 296 296